Theta_e
354 351 350 350 350 350 351 353 358 356 355 345 348 347 351 353 355 355 355 350 349 348
352 352 349 352 352 349 353 352 357 354 351 349 346 345 350 349 351 353 355 354 352 350
347 348 349 349 350 351 351 354 356 358 357 353 351 351 348 348 352 355 353 355 354 354
344 344 346 346 349 349 350 355 357 358 358 358 359 357 354 355 354 356 355 355 356 356
345 346 345 346 346 352 354 356 357 359 359 358 359 364 361 357 359 356 356 355 355 354
345 346 346 346 348 350 353 355 358 360 361 363 364 364 363 361 360 357 357 356 354 352
348 349 348 350 352 353 357 358 359 360 361 361 362 362 362 362 360 358 354 355 354 355
351 351 353 355 358 358 357 358 360 359 357 359 359 358 361 362 359 358 351 353 352 348
356 356 356 356 355 356 355 355 355 355 355 350 348 333 339 354 359 354 352 349 350 347
351 350 349 349 349 349 346 346 345 346 345 341 340 330 335 345 359 354 355 352 351 349
345 342 340 340 339 339 339 339 338 335 335 334 329 325 330 342 354 353 351 349 347 346
338 336 336 336 336 337 338 334 331 332 333 332 330 321 323 339 344 342 343 345 337 344
336 336 336 337 335 335 334 332 332 331 332 325 331 319 319 327 332 334 337 340 338 323
336 336 337 334 332 331 331 331 330 330 330 331 326 327 317 317 330 328 328 329 329 330
Wind_Speed
12 8 7 6 5 5 4 4 2 4 6 5 4 3 6 6 7 7 7 9 7 6
10 11 8 8 6 6 6 4 5 6 7 7 8 8 7 7 8 8 8 8 9 8
13 10 8 10 10 10 8 7 6 8 9 9 10 9 10 8 10 10 7 7 9 9
12 13 12 10 9 10 8 6 7 8 9 8 10 10 10 10 9 9 8 8 9 10
13 9 11 10 11 9 7 6 8 9 8 8 8 8 10 9 8 9 10 11 11 13
11 11 10 10 10 8 8 7 7 7 8 9 9 8 8 7 7 8 10 10 12 11
9 9 8 7 7 7 5 5 5 5 7 8 9 8 9 8 7 8 7 9 11 10
6 6 5 5 5 5 4 2 2 0 3 4 3 3 7 8 7 10 7 8 9 6
5 6 6 6 7 6 6 5 4 5 5 5 4 10 5 5 6 6 6 7 8 6
9 9 8 7 8 8 7 7 6 6 6 7 7 12 9 2 0 2 3 4 4 4
8 8 7 7 8 6 5 7 6 8 7 7 9 13 12 6 4 3 3 3 2 4
7 8 7 8 7 5 6 8 8 7 7 8 9 14 14 7 4 5 4 5 7 3
6 7 9 9 9 8 8 8 6 7 6 7 8 14 13 10 5 6 4 4 5 12
7 8 10 10 7 7 7 6 6 7 6 7 8 8 11 12 6 5 4 4 4 5
Wind_Direction
231 235 239 244 260 257 264 278 159 202 203 225 193 225 254 254 235 218 227 230 210 219
227 236 250 259 259 263 267 266 234 213 212 211 217 204 235 252 249 241 219 224 229 232
227 233 246 249 249 251 259 262 255 238 225 220 224 220 212 234 243 237 227 221 222 227
231 225 227 237 237 244 252 254 270 263 254 242 231 220 220 224 239 233 234 222 221 233
231 225 229 228 235 235 254 268 270 278 260 253 245 232 220 227 229 230 230 224 214 224
225 217 221 229 236 250 260 270 272 270 269 262 256 252 245 249 252 242 239 233 228 227
221 226 229 236 244 251 258 273 287 280 273 273 265 255 251 232 225 235 236 240 239 240
213 228 229 229 243 253 246 241 206 291 39 20 297 286 260 239 221 224 228 239 243 231
146 137 133 122 118 114 111 104 90 69 62 50 35 339 341 245 200 212 220 238 244 247
124 119 114 117 107 101 96 88 68 60 56 46 14 357 4 63 228 200 232 248 277 282
124 110 105 100 89 90 88 84 75 63 55 54 35 13 19 6 31 32 18 347 290 272
118 121 119 97 88 86 97 93 87 76 61 52 38 12 16 16 43 47 49 45 32 344
129 124 110 99 98 95 99 101 95 82 65 52 45 25 20 13 40 54 50 70 70 61
132 120 110 102 98 98 94 96 90 84 70 54 35 41 25 14 47 32 42 36 28 27